Terminal Aerodrome Forecast
Issued by NWS

Home | Current Version | Previous Version | Text Only | Print | Product List | Glossary On
Versions: 1 2 3 4 5 6 7 8 9 10 11 12 13 14 15 16 17 18 19 20 21
000
FTUS41 KGYX 270537
TAFRKD
TAF
KRKD 270537Z 2706/2806 02018G28KT 1 1/2SM -SN BLSN BR OVC007
     FM271200 35014G20KT P6SM -SHSN BKN020
     FM271600 33009G16KT P6SM BKN040
     FM272300 35005KT P6SM BKN050
      AMD LTD TO VIS CLD AND WIND=

USA.gov is the U.S. government's official web portal to all federal, state and local government web resources and services.